STARLINK-5676 (55464 NORAD) Tracking and Keplerian Element Data

This shows tracking and keplerian element data for the satellite.

Feedback or suggestion? Click here.




ElementValue
Catalog55464
NameSTARLINK-5676
Epoch Orbit831
Epoch Day85.25001157
Epoch Year2023
RAAN76.7303
Inclination43.0009
Eccentricity0.0001578
Argument of Perigee275.4301
Mean Anonmoly148.4457
Mean Motion15.48977915
Decay Rate-0.00109531
L11 55464U 23015R 23085.25001157 -.00109531 00000+0 -19977-2 0 9999
L22 55464 43.0009 76.7303 0001578 275.4301 148.4457 15.48977915 8312



Live tracking and technical data element details for STARLINK-5676 (NORAD 55464). STARLINK-5676 can be tracked NOW for your location showing map with azimuth and elevation plus other details from your city location.







IsCatalogInMostPopularTable: catalog: 55464, numindb: -1

Insert: records affected: 1


GetName: 55464 STARLINK-5676

Hit Count: inserted at: Tue, 28 Mar 2023 01:41:48 GMT